| time (UTC) | temp F | wind direction | speed knots | gust knots | rain 1hr in | rain 24hr in | rain mn in | humidity % | barometer mb |
| 20260903213520 | 75 | 192 | 5.2 | 7.0 | 0.00 | 0.00 | 0.00 | 85 | 1019.1 |
| 20260903212517 | 75 | 153 | 2.6 | 5.2 | 0.00 | 0.00 | 0.00 | 83 | 1019.1 |
| 20260903211515 | 75 | 162 | 2.6 | 5.2 | 0.00 | 0.00 | 0.00 | 82 | 1019.0 |
| 20260903210613 | 75 | 181 | 4.3 | 7.8 | 0.00 | 0.00 | 0.00 | 82 | 1019.0 |
| 20260903205610 | 76 | 189 | 3.5 | 5.2 | 0.00 | 0.00 | 0.00 | 80 | 1019.2 |
| 20260903204608 | 76 | 206 | 2.6 | 5.2 | 0.00 | 0.00 | 0.00 | 80 | 1019.2 |
| 20260903203605 | 76 | 202 | 3.5 | 5.2 | 0.00 | 0.00 | 0.00 | 79 | 1019.3 |
| 20260903202602 | 76 | 170 | 1.7 | 3.5 | 0.00 | 0.00 | 0.00 | 79 | 1019.3 |
| 20260903201600 | 77 | 177 | 0.9 | 3.5 | 0.00 | 0.00 | 0.00 | 79 | 1019.3 |
| 20260903200557 | 77 | 183 | 1.7 | 3.5 | 0.00 | 0.00 | 0.00 | 79 | 1019.2 |
| 20260903195554 | 77 | 176 | 1.7 | 3.5 | 0.00 | 0.00 | 0.00 | 77 | 1019.1 |
| 20260903194552 | 77 | 172 | 2.6 | 3.5 | 0.00 | 0.00 | 0.00 | 77 | 1019.0 |
| 20260903193549 | 77 | 173 | 2.6 | 5.2 | 0.00 | 0.00 | 0.00 | 77 | 1019.0 |
| 20260903192547 | 78 | 180 | 3.5 | 6.1 | 0.00 | 0.00 | 0.00 | 75 | 1018.8 |
| 20260903191544 | 78 | 171 | 2.6 | 5.2 | 0.00 | 0.00 | 0.00 | 74 | 1018.8 |
| 20260903190541 | 78 | 177 | 1.7 | 3.5 | 0.00 | 0.00 | 0.00 | 74 | 1018.6 |
| 20260903185539 | 78 | 149 | 2.6 | 5.2 | 0.00 | 0.00 | 0.00 | 73 | 1018.4 |
| 20260903184536 | 79 | 118 | 1.7 | 3.5 | 0.00 | 0.00 | 0.00 | 73 | 1018.4 |
| 20260903183534 | 79 | 135 | 1.7 | 6.1 | 0.00 | 0.00 | 0.00 | 72 | 1018.3 |
| 20260903182531 | 80 | 101 | 1.7 | 6.1 | 0.00 | 0.00 | 0.00 | 72 | 1018.3 |
| 20260903181528 | 80 | 126 | 2.6 | 6.1 | 0.00 | 0.00 | 0.00 | 72 | 1018.2 |
| 20260903180526 | 80 | 138 | 4.3 | 7.0 | 0.00 | 0.00 | 0.00 | 71 | 1018.2 |
| 20260903175523 | 81 | 156 | 2.6 | 7.0 | 0.00 | 0.00 | 0.00 | 70 | 1018.0 |
| 20260903174521 | 81 | 118 | 3.5 | 7.0 | 0.00 | 0.00 | 0.00 | 70 | 1018.1 |
| 20260903173518 | 81 | 119 | 5.2 | 9.6 | 0.00 | 0.00 | 0.00 | 69 | 1018.0 |
| 20260903172515 | 82 | 124 | 4.3 | 9.6 | 0.00 | 0.00 | 0.00 | 68 | 1017.9 |
| 20260903171613 | 82 | 218 | 3.5 | 11.3 | 0.00 | 0.00 | 0.00 | 67 | 1017.9 |
| 20260903170610 | 83 | 127 | 4.3 | 11.3 | 0.00 | 0.00 | 0.00 | 67 | 1017.8 |
| 20260903165608 | 83 | 178 | 6.1 | 12.2 | 0.00 | 0.00 | 0.00 | 66 | 1017.8 |
| 20260903164605 | 83 | 160 | 6.1 | 11.3 | 0.00 | 0.00 | 0.00 | 65 | 1017.9 |
| 20260903163603 | 84 | 178 | 5.2 | 11.3 | 0.00 | 0.00 | 0.00 | 64 | 1017.9 |
| 20260903162600 | 85 | 162 | 5.2 | 11.3 | 0.00 | 0.00 | 0.00 | 64 | 1017.8 |
| 20260903161558 | 85 | 151 | 7.0 | 9.6 | 0.00 | 0.00 | 0.00 | 62 | 1017.8 |
| 20260903160555 | 87 | 101 | 4.3 | 9.6 | 0.00 | 0.00 | 0.00 | 59 | 1017.8 |
| 20260903155552 | 87 | 142 | 4.3 | 9.6 | 0.00 | 0.00 | 0.00 | 58 | 1017.8 |
| 20260903154550 | 87 | 123 | 5.2 | 11.3 | 0.00 | 0.00 | 0.00 | 56 | 1017.9 |
| 20260903153547 | 88 | 124 | 3.5 | 7.8 | 0.00 | 0.00 | 0.00 | 53 | 1017.8 |
| 20260903152544 | 89 | 120 | 3.5 | 9.6 | 0.00 | 0.00 | 0.00 | 52 | 1017.9 |
| 20260903151542 | 90 | 138 | 5.2 | 11.3 | 0.00 | 0.00 | 0.00 | 49 | 1017.8 |
| 20260903150539 | 90 | 129 | 4.3 | 9.6 | 0.00 | 0.00 | 0.00 | 49 | 1017.8 |
| 20260903145537 | 90 | 205 | 2.6 | 7.0 | 0.00 | 0.00 | 0.00 | 50 | 1017.9 |
| 20260903144534 | 90 | 99 | 2.6 | 7.0 | 0.00 | 0.00 | 0.00 | 49 | 1017.9 |
| 20260903143531 | 89 | 146 | 3.5 | 9.6 | 0.00 | 0.00 | 0.00 | 49 | 1017.9 |
| 20260903142529 | 90 | 84 | 3.5 | 7.0 | 0.00 | 0.00 | 0.00 | 49 | 1017.8 |
| 20260903141526 | 90 | 85 | 2.6 | 7.0 | 0.00 | 0.00 | 0.00 | 50 | 1018.0 |
| 20260903140524 | 89 | 188 | 3.5 | 9.6 | 0.00 | 0.00 | 0.00 | 51 | 1018.0 |
| 20260903135521 | 89 | 115 | 4.3 | 9.6 | 0.00 | 0.00 | 0.00 | 51 | 1018.1 |
| 20260903134519 | 90 | 94 | 3.5 | 7.0 | 0.00 | 0.00 | 0.00 | 50 | 1018.0 |
| 20260903133516 | 90 | 112 | 2.6 | 7.8 | 0.00 | 0.00 | 0.00 | 50 | 1018.3 |
| 20260903132613 | 90 | 186 | 2.6 | 9.6 | 0.00 | 0.00 | 0.00 | 49 | 1018.3 |
| 20260903131611 | 89 | 96 | 2.6 | 9.6 | 0.00 | 0.00 | 0.00 | 49 | 1018.3 |
| 20260903130609 | 90 | 128 | 2.6 | 7.0 | 0.00 | 0.00 | 0.00 | 49 | 1018.3 |
| 20260903125605 | 90 | 82 | 1.7 | 6.1 | 0.00 | 0.00 | 0.00 | 47 | 1018.5 |
| 20260903124602 | 91 | 102 | 1.7 | 5.2 | 0.00 | 0.00 | 0.00 | 45 | 1018.4 |
| 20260903123600 | 89 | 75 | 3.5 | 7.0 | 0.00 | 0.00 | 0.00 | 46 | 1018.4 |
| 20260903122557 | 89 | 43 | 3.5 | 7.8 | 0.00 | 0.00 | 0.00 | 44 | 1018.5 |
| 20260903121555 | 90 | 66 | 2.6 | 6.1 | 0.00 | 0.00 | 0.00 | 44 | 1018.4 |
| 20260903120552 | 90 | 90 | 1.7 | 5.2 | 0.00 | 0.00 | 0.00 | 43 | 1018.4 |
| 20260903115550 | 89 | 23 | 3.5 | 9.6 | 0.00 | 0.00 | 0.00 | 44 | 1018.6 |
| 20260903114547 | 90 | 103 | 3.5 | 9.6 | 0.00 | 0.00 | 0.00 | 43 | 1018.5 |
| 20260903113544 | 90 | 240 | 1.7 | 3.5 | 0.00 | 0.00 | 0.00 | 42 | 1018.7 |
| 20260903112542 | 89 | 53 | 1.7 | 6.1 | 0.00 | 0.00 | 0.00 | 41 | 1018.8 |
| 20260903111539 | 88 | 105 | 3.5 | 9.6 | 0.00 | 0.00 | 0.00 | 42 | 1019.0 |
| 20260903110537 | 88 | 105 | 2.6 | 7.0 | 0.00 | 0.00 | 0.00 | 41 | 1019.0 |
| 20260903105534 | 89 | 355 | 2.6 | 7.8 | 0.00 | 0.00 | 0.00 | 40 | 1019.1 |
| 20260903104531 | 88 | 14 | 1.7 | 7.0 | 0.00 | 0.00 | 0.00 | 41 | 1019.2 |
| 20260903103529 | 88 | 107 | 0.9 | 3.5 | 0.00 | 0.00 | 0.00 | 42 | 1019.3 |
| 20260903102526 | 87 | 112 | 1.7 | 3.5 | 0.00 | 0.00 | 0.00 | 43 | 1019.4 |
| 20260903101524 | 87 | 130 | 2.6 | 5.2 | 0.00 | 0.00 | 0.00 | 43 | 1019.6 |
| 20260903100521 | 86 | 110 | 3.5 | 6.1 | 0.00 | 0.00 | 0.00 | 43 | 1019.5 |
| 20260903095518 | 87 | 69 | 1.7 | 5.2 | 0.00 | 0.00 | 0.00 | 40 | 1019.5 |
| 20260903094516 | 86 | 353 | 1.7 | 5.2 | 0.00 | 0.00 | 0.00 | 42 | 1019.6 |
| 20260903093613 | 85 | 116 | 2.6 | 5.2 | 0.00 | 0.00 | 0.00 | 44 | 1019.7 |
| 20260903092611 | 86 | 97 | 1.7 | 5.2 | 0.00 | 0.00 | 0.00 | 44 | 1019.7 |
| 20260903091608 | 85 | 113 | 0.9 | 3.5 | 0.00 | 0.00 | 0.00 | 46 | 1019.6 |
| 20260903090606 | 85 | 14 | 0.9 | 3.5 | 0.00 | 0.00 | 0.00 | 47 | 1019.5 |
| 20260903085603 | 84 | 110 | 1.7 | 5.2 | 0.00 | 0.00 | 0.00 | 47 | 1019.4 |
| 20260903084601 | 83 | 96 | 1.7 | 3.5 | 0.00 | 0.00 | 0.00 | 51 | 1019.4 |
| 20260903083558 | 83 | 45 | 1.7 | 3.5 | 0.00 | 0.00 | 0.00 | 51 | 1019.3 |
| 20260903082555 | 83 | 126 | 0.9 | 3.5 | 0.00 | 0.00 | 0.00 | 50 | 1019.1 |
| 20260903081553 | 82 | 113 | 0.9 | 3.5 | 0.00 | 0.00 | 0.00 | 52 | 1019.2 |
| 20260903080550 | 81 | 114 | 1.7 | 3.5 | 0.00 | 0.00 | 0.00 | 53 | 1019.1 |
| 20260903075548 | 82 | 130 | 0.0 | 1.7 | 0.00 | 0.00 | 0.00 | 53 | 1019.2 |
| 20260903074545 | 82 | 0.0 | 1.7 | 0.00 | 0.00 | 0.00 | 52 | 1019.1 | |
| 20260903073542 | 80 | 113 | 0.9 | 1.7 | 0.00 | 0.00 | 0.00 | 53 | 1019.1 |
| 20260903072540 | 79 | 113 | 0.9 | 1.7 | 0.00 | 0.00 | 0.00 | 54 | 1019.2 |
| 20260903071537 | 78 | 123 | 0.9 | 1.7 | 0.00 | 0.00 | 0.00 | 55 | 1019.1 |
| 20260903070535 | 78 | 99 | 0.9 | 1.7 | 0.00 | 0.00 | 0.00 | 55 | 1019.0 |
| 20260903065532 | 80 | 106 | 0.0 | 1.7 | 0.00 | 0.00 | 0.00 | 53 | 1019.0 |
| 20260903064559 | 79 | 0.0 | 0.0 | 0.00 | 0.00 | 0.00 | 54 | 1018.9 | |
| 20260903063557 | 78 | 0.0 | 1.7 | 0.00 | 0.00 | 0.00 | 55 | 1018.8 | |
| 20260903062554 | 77 | 0.0 | 0.0 | 0.00 | 0.00 | 0.00 | 57 | 1018.7 | |
| 20260903061552 | 76 | 0.0 | 0.0 | 0.00 | 0.00 | 0.00 | 58 | 1018.5 | |
| 20260903060549 | 74 | 225 | 0.0 | 1.7 | 0.00 | 0.00 | 0.00 | 60 | 1018.5 |
| 20260903055546 | 73 | 0.0 | 1.7 | 0.00 | 0.00 | 0.00 | 62 | 1018.4 | |
| 20260903054544 | 73 | 248 | 0.9 | 1.7 | 0.00 | 0.00 | 0.00 | 63 | 1018.4 |
| 20260903053541 | 72 | 234 | 0.9 | 1.7 | 0.00 | 0.00 | 0.00 | 64 | 1018.3 |
| 20260903052538 | 72 | 0.0 | 0.0 | 0.00 | 0.00 | 0.00 | 64 | 1018.2 | |
| 20260903051536 | 72 | 277 | 1.7 | 3.5 | 0.00 | 0.00 | 0.00 | 64 | 1018.1 |
| 20260903050533 | 72 | 225 | 0.0 | 1.7 | 0.00 | 0.00 | 0.00 | 65 | 1018.1 |
| 20260903045531 | 72 | 218 | 0.0 | 1.7 | 0.00 | 0.00 | 0.00 | 64 | 1018.1 |
| 20260903044528 | 72 | 0.0 | 0.0 | 0.00 | 0.00 | 0.00 | 64 | 1018.0 | |
| 20260903043526 | 73 | 0.0 | 1.7 | 0.00 | 0.00 | 0.00 | 63 | 1018.1 | |
| 20260903042523 | 73 | 225 | 1.7 | 3.5 | 0.00 | 0.00 | 0.00 | 63 | 1018.0 |
| 20260903041520 | 73 | 225 | 0.0 | 1.7 | 0.00 | 0.00 | 0.00 | 63 | 1018.0 |
| 20260903040518 | 73 | 254 | 1.7 | 3.5 | 0.00 | 0.00 | 0.00 | 63 | 1018.1 |
| 20260903035515 | 73 | 225 | 0.0 | 1.7 | 0.00 | 0.00 | 0.00 | 64 | 1018.2 |
| 20260903034613 | 72 | 0.0 | 0.0 | 0.00 | 0.00 | 0.00 | 65 | 1018.3 | |
| 20260903033610 | 73 | 0.0 | 0.0 | 0.00 | 0.00 | 0.00 | 64 | 1018.3 | |
| 20260903032608 | 73 | 0.0 | 0.0 | 0.00 | 0.00 | 0.00 | 64 | 1018.4 | |
| 20260903031605 | 73 | 242 | 0.9 | 1.7 | 0.00 | 0.00 | 0.00 | 63 | 1018.3 |
| 20260903030602 | 74 | 229 | 0.9 | 1.7 | 0.00 | 0.00 | 0.00 | 62 | 1018.5 |
| 20260903025600 | 74 | 246 | 1.7 | 3.5 | 0.00 | 0.00 | 0.00 | 60 | 1018.5 |
| 20260903024557 | 74 | 243 | 1.7 | 1.7 | 0.00 | 0.00 | 0.00 | 61 | 1018.6 |
| 20260903023554 | 74 | 261 | 1.7 | 3.5 | 0.00 | 0.00 | 0.00 | 62 | 1018.4 |
| 20260903022552 | 73 | 248 | 0.9 | 1.7 | 0.00 | 0.00 | 0.00 | 64 | 1018.5 |
| 20260903021549 | 73 | 248 | 1.7 | 1.7 | 0.00 | 0.00 | 0.00 | 64 | 1018.6 |
| 20260903020547 | 73 | 229 | 0.9 | 1.7 | 0.00 | 0.00 | 0.00 | 65 | 1018.6 |
| 20260903015544 | 73 | 180 | 0.0 | 1.7 | 0.00 | 0.00 | 0.00 | 65 | 1018.5 |
| 20260903014542 | 73 | 0.0 | 0.0 | 0.00 | 0.00 | 0.00 | 63 | 1018.5 | |
| 20260903013539 | 74 | 270 | 0.9 | 1.7 | 0.00 | 0.00 | 0.00 | 61 | 1018.6 |
| 20260903012536 | 74 | 0.0 | 0.0 | 0.00 | 0.00 | 0.00 | 62 | 1018.5 | |
| 20260903011534 | 74 | 270 | 0.9 | 1.7 | 0.00 | 0.00 | 0.00 | 62 | 1018.7 |
| 20260903010531 | 74 | 248 | 0.9 | 1.7 | 0.00 | 0.00 | 0.00 | 63 | 1018.6 |
| 20260903005529 | 73 | 241 | 1.7 | 3.5 | 0.00 | 0.00 | 0.00 | 63 | 1018.8 |
| 20260903004526 | 73 | 225 | 0.9 | 1.7 | 0.00 | 0.00 | 0.00 | 63 | 1018.8 |
| 20260903003523 | 73 | 240 | 0.9 | 1.7 | 0.00 | 0.00 | 0.00 | 63 | 1018.8 |
| 20260903002521 | 73 | 245 | 1.7 | 3.5 | 0.00 | 0.00 | 0.00 | 63 | 1018.9 |
| 20260903001518 | 73 | 248 | 0.9 | 1.7 | 0.00 | 0.00 | 0.00 | 63 | 1018.9 |
| 20260903000516 | 73 | 203 | 0.9 | 1.7 | 0.00 | 0.00 | 0.00 | 63 | 1019.2 |
| 20260902235613 | 73 | 203 | 0.0 | 1.7 | 0.00 | 0.00 | 0.00 | 61 | 1019.0 |
| 20260902234611 | 74 | 181 | 0.9 | 1.7 | 0.00 | 0.00 | 0.00 | 60 | 1019.1 |
| 20260902233608 | 74 | 230 | 0.9 | 1.7 | 0.00 | 0.00 | 0.00 | 60 | 1018.9 |
| 20260902232606 | 74 | 234 | 1.7 | 3.5 | 0.00 | 0.00 | 0.00 | 61 | 1018.9 |
| 20260902231603 | 74 | 181 | 0.9 | 1.7 | 0.00 | 0.00 | 0.00 | 61 | 1018.8 |
| 20260902230600 | 75 | 244 | 0.9 | 3.5 | 0.00 | 0.00 | 0.00 | 60 | 1018.8 |
| 20260902225558 | 75 | 225 | 0.0 | 1.7 | 0.00 | 0.00 | 0.00 | 59 | 1018.8 |
| 20260902224555 | 75 | 246 | 0.9 | 1.7 | 0.00 | 0.00 | 0.00 | 60 | 1018.7 |
| 20260902223553 | 74 | 264 | 1.7 | 3.5 | 0.00 | 0.00 | 0.00 | 62 | 1018.7 |
| 20260902222550 | 74 | 225 | 0.9 | 1.7 | 0.00 | 0.00 | 0.00 | 66 | 1018.7 |
| 20260902221547 | 74 | 300 | 0.0 | 1.7 | 0.00 | 0.00 | 0.00 | 67 | 1018.9 |
| 20260902220545 | 74 | 248 | 1.7 | 3.5 | 0.00 | 0.00 | 0.00 | 70 | 1018.9 |
| 20260902215542 | 73 | 237 | 2.6 | 3.5 | 0.00 | 0.00 | 0.00 | 72 | 1018.9 |
| 20260902214540 | 74 | 249 | 2.6 | 3.5 | 0.00 | 0.00 | 0.00 | 71 | 1018.9 |